UAL757 KSEA-KDEN

Flight info

Callsign UAL757
Flight time 2h 14m
Altitude 37000
Route MONTN2 SEA NORMY MODDA STEVS Q150 LEZLE KU87M IDA MJANE FLATI5
Aircraft B38M/M-SDE1FGHILORVWXY/HB1

Departure

Time 2026-05-04 21:49
Airport Seattle–Tacoma International Airport (KSEA)

Arrival

Time 2026-05-05 00:03
Airport Denver International Airport (KDEN)
Time Latitude Longitude Altitude Speed Heading
2026-05-04 21:18 47.44202 -122.30475 393 ft 0 kts 90°
2026-05-04 21:39 47.44203 -122.30486 393 ft 4 kts 27°
2026-05-04 21:39 47.44191 -122.30507 392 ft 4 kts 60°
2026-05-04 21:40 47.44174 -122.30534 391 ft 4 kts 26°
2026-05-04 21:40 47.44148 -122.30544 395 ft 4 kts
2026-05-04 21:40 47.44137 -122.30544 396 ft 1 kts
2026-05-04 21:44 47.44138 -122.30544 394 ft 1 kts
2026-05-04 21:45 47.44183 -122.30556 392 ft 14 kts 342°
2026-05-04 21:45 47.44322 -122.30620 394 ft 27 kts 345°
2026-05-04 21:45 47.44537 -122.30631 393 ft 35 kts
2026-05-04 21:45 47.44785 -122.30630 394 ft 36 kts
2026-05-04 21:46 47.45038 -122.30628 392 ft 37 kts
2026-05-04 21:46 47.45295 -122.30624 396 ft 37 kts
2026-05-04 21:46 47.45555 -122.30623 393 ft 38 kts
2026-05-04 21:46 47.45819 -122.30621 393 ft 38 kts
2026-05-04 21:47 47.46040 -122.30619 396 ft 27 kts
2026-05-04 21:47 47.46234 -122.30619 395 ft 28 kts 360°
2026-05-04 21:47 47.46376 -122.30670 395 ft 13 kts 287°
2026-05-04 21:47 47.46322 -122.30772 396 ft 17 kts 196°
2026-05-04 21:48 47.46111 -122.30779 391 ft 62 kts 180°
2026-05-04 21:48 47.45430 -122.30789 395 ft 131 kts 180°
2026-05-04 21:48 47.44321 -122.30800 455 ft 181 kts 182°
2026-05-04 21:48 47.42984 -122.30827 946 ft 203 kts 179°
2026-05-04 21:49 47.41677 -122.31047 2194 ft 184 kts 198°
2026-05-04 21:49 47.40276 -122.31005 2094 ft 246 kts 146°
2026-05-04 21:49 47.39174 -122.29270 3591 ft 217 kts 130°
2026-05-04 21:49 47.37943 -122.27861 4270 ft 242 kts 159°
2026-05-04 21:50 47.36246 -122.27485 4870 ft 257 kts 188°
2026-05-04 21:50 47.34453 -122.28091 5590 ft 272 kts 194°
2026-05-04 21:50 47.32510 -122.28120 6302 ft 288 kts 164°
2026-05-04 21:50 47.30751 -122.26831 7411 ft 284 kts 139°
2026-05-04 21:51 47.29569 -122.24508 8254 ft 286 kts 109°
2026-05-04 21:51 47.29266 -122.21662 9247 ft 284 kts 80°
2026-05-04 21:51 47.29865 -122.18924 10131 ft 281 kts 58°
2026-05-04 21:51 47.30753 -122.16280 10865 ft 298 kts 68°
2026-05-04 21:52 47.31520 -122.13330 11288 ft 319 kts 68°
2026-05-04 21:52 47.32352 -122.10182 11688 ft 339 kts 67°
2026-05-04 21:52 47.32935 -122.08009 11999 ft 349 kts 67°
2026-05-04 21:52 47.33849 -122.04633 12583 ft 360 kts 66°
2026-05-04 21:53 47.34797 -122.01177 13264 ft 366 kts 66°
2026-05-04 21:53 47.35767 -121.97693 14028 ft 369 kts 65°
2026-05-04 21:53 47.36749 -121.94189 14744 ft 373 kts 65°
2026-05-04 21:53 47.37748 -121.90640 15466 ft 376 kts 65°
2026-05-04 21:54 47.38757 -121.87057 16150 ft 380 kts 65°
2026-05-04 21:54 47.39776 -121.83436 16807 ft 383 kts 65°
2026-05-04 21:54 47.40802 -121.79790 17462 ft 386 kts 65°
2026-05-04 21:54 47.41839 -121.76100 18091 ft 390 kts 65°
2026-05-04 21:55 47.42688 -121.72275 18684 ft 397 kts 78°
2026-05-04 21:55 47.42798 -121.68227 19302 ft 402 kts 89°
2026-05-04 21:55 47.42776 -121.64070 19811 ft 407 kts 87°
2026-05-04 21:55 47.42745 -121.59866 20397 ft 410 kts 88°
2026-05-04 21:56 47.42695 -121.55649 20889 ft 414 kts 88°
2026-05-04 21:56 47.42521 -121.51383 21413 ft 420 kts 97°
2026-05-04 21:56 47.41808 -121.47177 21947 ft 424 kts 101°
2026-05-04 21:56 47.41079 -121.42935 22405 ft 428 kts 101°
2026-05-04 21:57 47.40330 -121.38658 22896 ft 431 kts 101°
2026-05-04 21:57 47.39566 -121.34352 23365 ft 434 kts 101°
2026-05-04 21:57 47.38795 -121.30027 23801 ft 437 kts 101°
2026-05-04 21:57 47.38016 -121.25673 24258 ft 440 kts 101°
2026-05-04 21:58 47.37233 -121.21305 24692 ft 443 kts 101°
2026-05-04 21:58 47.36449 -121.16944 25133 ft 446 kts 101°
2026-05-04 21:58 47.35649 -121.12510 25528 ft 449 kts 101°
2026-05-04 21:58 47.34841 -121.08041 25927 ft 452 kts 101°
2026-05-04 21:59 47.34028 -121.03549 26345 ft 454 kts 101°
2026-05-04 21:59 47.33208 -120.99030 26753 ft 457 kts 101°
2026-05-04 21:59 47.32381 -120.94491 27109 ft 460 kts 101°
2026-05-04 21:59 47.31548 -120.89920 27460 ft 463 kts 101°
2026-05-04 22:00 47.30710 -120.85345 27801 ft 466 kts 101°
2026-05-04 22:00 47.29864 -120.80727 28150 ft 468 kts 101°
2026-05-04 22:00 47.29008 -120.76078 28500 ft 470 kts 101°
2026-05-04 22:00 47.28148 -120.71409 28818 ft 473 kts 101°
2026-05-04 22:01 47.27284 -120.66730 29140 ft 475 kts 101°
2026-05-04 22:01 47.26413 -120.62026 29448 ft 477 kts 101°
2026-05-04 22:01 47.25533 -120.57285 29804 ft 478 kts 101°
2026-05-04 22:01 47.24726 -120.52667 30568 ft 466 kts 98°
2026-05-04 22:02 47.23990 -120.48098 31426 ft 454 kts 98°
2026-05-04 22:02 47.23261 -120.43642 32210 ft 443 kts 97°
2026-05-04 22:02 47.22543 -120.39276 32825 ft 436 kts 97°
2026-05-04 22:02 47.21824 -120.34933 33150 ft 436 kts 97°
2026-05-04 22:03 47.21103 -120.30587 33378 ft 438 kts 97°
2026-05-04 22:03 47.20376 -120.26216 33635 ft 440 kts 97°
2026-05-04 22:03 47.19646 -120.21840 33890 ft 441 kts 97°
2026-05-04 22:03 47.18912 -120.17448 34114 ft 443 kts 97°
2026-05-04 22:04 47.18186 -120.13119 34344 ft 443 kts 97°
2026-05-04 22:04 47.17446 -120.08712 34526 ft 446 kts 97°
2026-05-04 22:04 47.16609 -120.04301 34738 ft 453 kts 105°
2026-05-04 22:04 47.15219 -120.00086 34955 ft 459 kts 110°
2026-05-04 22:05 47.13816 -119.95856 35105 ft 461 kts 109°
2026-05-04 22:05 47.12399 -119.91603 35247 ft 464 kts 109°
2026-05-04 22:05 47.10964 -119.87340 35431 ft 466 kts 110°
2026-05-04 22:05 47.09519 -119.83061 35642 ft 468 kts 110°
2026-05-04 22:06 47.08091 -119.78843 35794 ft 470 kts 110°
2026-05-04 22:06 47.06618 -119.74499 35980 ft 471 kts 109°
2026-05-04 22:06 47.05172 -119.70241 36162 ft 472 kts 109°
2026-05-04 22:06 47.03701 -119.65918 36339 ft 474 kts 109°
2026-05-04 22:07 47.02223 -119.61579 36477 ft 476 kts 109°
2026-05-04 22:07 47.00738 -119.57226 36639 ft 477 kts 109°
2026-05-04 22:07 46.99250 -119.52876 36792 ft 477 kts 109°
2026-05-04 22:08 46.96313 -119.44309 36810 ft 469 kts 109°
2026-05-04 22:08 46.93392 -119.35814 36798 ft 465 kts 109°
2026-05-04 22:09 46.90478 -119.27367 36823 ft 465 kts 109°
2026-05-04 22:09 46.87552 -119.18912 36806 ft 465 kts 109°
2026-05-04 22:10 46.84645 -119.10542 36813 ft 465 kts 109°
2026-05-04 22:10 46.81711 -119.02116 36817 ft 466 kts 109°
2026-05-04 22:11 46.78763 -118.93679 36818 ft 467 kts 110°
2026-05-04 22:11 46.75805 -118.85240 36811 ft 466 kts 110°
2026-05-04 22:12 46.72847 -118.76829 36818 ft 467 kts 110°
2026-05-04 22:12 46.69892 -118.68454 36830 ft 467 kts 110°
2026-05-04 22:13 46.66919 -118.60052 36827 ft 465 kts 110°
2026-05-04 22:13 46.63949 -118.51687 36829 ft 466 kts 110°
2026-05-04 22:14 46.60991 -118.43381 36816 ft 465 kts 110°
2026-05-04 22:14 46.58000 -118.35009 36816 ft 466 kts 110°
2026-05-04 22:15 46.55004 -118.26650 36834 ft 465 kts 110°
2026-05-04 22:15 46.52033 -118.18386 36843 ft 465 kts 110°
2026-05-04 22:16 46.49030 -118.10056 36837 ft 465 kts 110°
2026-05-04 22:16 46.46023 -118.01744 36845 ft 465 kts 110°
2026-05-04 22:17 46.43007 -117.93433 36844 ft 465 kts 110°
2026-05-04 22:17 46.39995 -117.85157 36840 ft 465 kts 110°
2026-05-04 22:18 46.36967 -117.76863 36843 ft 466 kts 111°
2026-05-04 22:18 46.33951 -117.68631 36836 ft 466 kts 111°
2026-05-04 22:19 46.30905 -117.60339 36828 ft 466 kts 111°
2026-05-04 22:19 46.27861 -117.52079 36830 ft 466 kts 111°
2026-05-04 22:20 46.24798 -117.43790 36849 ft 467 kts 111°
2026-05-04 22:20 46.21729 -117.35506 36821 ft 467 kts 111°
2026-05-04 22:21 46.18673 -117.27282 36817 ft 468 kts 111°
2026-05-04 22:21 46.15590 -117.19006 36834 ft 469 kts 111°
2026-05-04 22:22 46.12039 -117.11034 36879 ft 475 kts 118°
2026-05-04 22:22 46.08199 -117.03234 36830 ft 477 kts 119°
2026-05-04 22:23 46.04344 -116.95443 36845 ft 477 kts 119°
2026-05-04 22:23 46.00513 -116.87726 36852 ft 477 kts 119°
2026-05-04 22:24 45.96654 -116.79975 36855 ft 473 kts 120°
2026-05-04 22:24 45.92837 -116.72323 36855 ft 471 kts 120°
2026-05-04 22:25 45.89004 -116.64665 36872 ft 473 kts 120°
2026-05-04 22:25 45.85167 -116.57019 36884 ft 473 kts 120°
2026-05-04 22:26 45.81315 -116.49363 36880 ft 473 kts 120°
2026-05-04 22:26 45.77480 -116.41761 36889 ft 474 kts 120°
2026-05-04 22:27 45.73622 -116.34135 36887 ft 474 kts 120°
2026-05-04 22:27 45.69749 -116.26501 36885 ft 475 kts 120°
2026-05-04 22:28 45.65862 -116.18857 36882 ft 475 kts 120°
2026-05-04 22:28 45.61964 -116.11213 36886 ft 475 kts 120°
2026-05-04 22:29 45.58094 -116.03646 36875 ft 475 kts 120°
2026-05-04 22:29 45.54190 -115.96034 36871 ft 475 kts 120°
2026-05-04 22:30 45.50284 -115.88436 36864 ft 474 kts 121°
2026-05-04 22:30 45.46369 -115.80840 36846 ft 475 kts 121°
2026-05-04 22:31 45.42460 -115.73277 36866 ft 475 kts 121°
2026-05-04 22:31 45.38567 -115.65767 36870 ft 473 kts 121°
2026-05-04 22:32 45.34657 -115.58241 36882 ft 473 kts 121°
2026-05-04 22:32 45.30734 -115.50712 36871 ft 472 kts 122°
2026-05-04 22:33 45.26851 -115.43279 36868 ft 472 kts 122°
2026-05-04 22:33 45.22930 -115.35793 36881 ft 472 kts 122°
2026-05-04 22:34 45.19012 -115.28330 36876 ft 471 kts 122°
2026-05-04 22:34 45.15083 -115.20866 36874 ft 471 kts 122°
2026-05-04 22:35 45.11188 -115.13489 36891 ft 471 kts 123°
2026-05-04 22:35 45.07256 -115.06058 36901 ft 471 kts 123°
2026-05-04 22:36 45.03323 -114.98647 36886 ft 471 kts 123°
2026-05-04 22:36 44.99387 -114.91248 36884 ft 470 kts 123°
2026-05-04 22:37 44.95471 -114.83905 36880 ft 470 kts 123°
2026-05-04 22:37 44.91523 -114.76524 36871 ft 469 kts 123°
2026-05-04 22:38 44.87594 -114.69194 36868 ft 470 kts 124°
2026-05-04 22:38 44.83650 -114.61855 36873 ft 470 kts 124°
2026-05-04 22:39 44.79694 -114.54514 36868 ft 469 kts 124°
2026-05-04 22:39 44.75736 -114.47187 36857 ft 469 kts 124°
2026-05-04 22:40 44.71783 -114.39890 36856 ft 469 kts 124°
2026-05-04 22:40 44.67850 -114.32647 36856 ft 469 kts 124°
2026-05-04 22:41 44.63890 -114.25368 36851 ft 468 kts 125°
2026-05-04 22:41 44.60592 -114.19320 36836 ft 468 kts 125°
2026-05-04 22:42 44.56630 -114.12070 36842 ft 468 kts 125°
2026-05-04 22:42 44.52674 -114.04847 36838 ft 468 kts 125°
2026-05-04 22:43 44.48847 -113.97471 36839 ft 466 kts 122°
2026-05-04 22:43 44.45183 -113.89959 36845 ft 467 kts 122°
2026-05-04 22:44 44.41510 -113.82504 36840 ft 468 kts 123°
2026-05-04 22:44 44.37820 -113.75038 36849 ft 468 kts 123°
2026-05-04 22:45 44.34114 -113.67557 36851 ft 468 kts 123°
2026-05-04 22:45 44.28548 -113.56362 36853 ft 468 kts 123°
2026-05-04 22:46 44.24858 -113.48963 36851 ft 468 kts 123°
2026-05-04 22:46 44.21130 -113.41505 36856 ft 468 kts 123°
2026-05-04 22:47 44.17395 -113.34056 36859 ft 469 kts 123°
2026-05-04 22:47 44.13652 -113.26606 36859 ft 469 kts 123°
2026-05-04 22:48 44.09901 -113.19161 36864 ft 470 kts 123°
2026-05-04 22:48 44.06137 -113.11710 36858 ft 470 kts 123°
2026-05-04 22:49 44.02389 -113.04309 36860 ft 472 kts 123°
2026-05-04 22:49 43.98603 -112.96852 36863 ft 471 kts 124°
2026-05-04 22:50 43.94839 -112.89457 36840 ft 468 kts 125°
2026-05-04 22:50 43.91069 -112.82069 36854 ft 470 kts 125°
2026-05-04 22:51 43.87289 -112.74680 36852 ft 470 kts 125°
2026-05-04 22:51 43.83502 -112.67297 36847 ft 470 kts 126°
2026-05-04 22:52 43.79736 -112.59970 36845 ft 471 kts 126°
2026-05-04 22:52 43.75932 -112.52592 36842 ft 471 kts 126°
2026-05-04 22:53 43.72124 -112.45221 36830 ft 471 kts 126°
2026-05-04 22:53 43.68303 -112.37846 36817 ft 472 kts 126°
2026-05-04 22:54 43.64511 -112.30544 36842 ft 471 kts 126°
2026-05-04 22:54 43.60676 -112.23176 36832 ft 473 kts 126°
2026-05-04 22:55 43.56828 -112.15802 36835 ft 472 kts 126°
2026-05-04 22:55 43.52988 -112.08458 36818 ft 473 kts 126°
2026-05-04 22:56 43.49092 -112.01257 36841 ft 472 kts 127°
2026-05-04 22:56 43.45162 -111.94013 36830 ft 473 kts 127°
2026-05-04 22:57 43.41206 -111.86731 36831 ft 474 kts 128°
2026-05-04 22:57 43.37253 -111.79474 36831 ft 474 kts 128°
2026-05-04 22:58 43.33295 -111.72227 36838 ft 474 kts 128°
2026-05-04 22:58 43.29346 -111.65013 36854 ft 475 kts 128°
2026-05-04 22:59 43.25369 -111.57766 36849 ft 475 kts 128°
2026-05-04 22:59 43.21385 -111.50523 36857 ft 476 kts 129°
2026-05-04 23:00 43.17386 -111.43271 36865 ft 476 kts 129°
2026-05-04 23:00 43.13383 -111.36033 36860 ft 477 kts 129°
2026-05-04 23:01 43.09372 -111.28793 36854 ft 478 kts 129°
2026-05-04 23:01 43.05383 -111.21611 36854 ft 478 kts 129°
2026-05-04 23:02 43.01358 -111.14383 36864 ft 479 kts 130°
2026-05-04 23:02 42.97318 -111.07148 36862 ft 479 kts 130°
2026-05-04 23:03 42.93272 -110.99917 36871 ft 479 kts 130°
2026-05-04 23:03 42.89218 -110.92690 36874 ft 480 kts 130°
2026-05-04 23:04 42.85173 -110.85496 36886 ft 480 kts 130°
2026-05-04 23:04 42.81103 -110.78274 36884 ft 480 kts 131°
2026-05-04 23:05 42.77036 -110.71078 36888 ft 481 kts 131°
2026-05-04 23:05 42.72943 -110.63853 36891 ft 481 kts 131°
2026-05-04 23:06 42.68876 -110.56688 36887 ft 481 kts 131°
2026-05-04 23:06 42.64771 -110.49478 36890 ft 482 kts 131°
2026-05-04 23:07 42.60672 -110.42293 36910 ft 482 kts 131°
2026-05-04 23:07 42.56547 -110.35082 36906 ft 483 kts 132°
2026-05-04 23:08 42.52424 -110.27890 36919 ft 483 kts 132°
2026-05-04 23:08 42.48310 -110.20732 36911 ft 483 kts 132°
2026-05-04 23:09 42.44181 -110.13563 36919 ft 483 kts 132°
2026-05-04 23:09 42.40035 -110.06385 36919 ft 484 kts 132°
2026-05-04 23:10 42.35910 -109.99259 36911 ft 483 kts 133°
2026-05-04 23:10 42.31759 -109.92106 36909 ft 483 kts 133°
2026-05-04 23:11 42.27596 -109.84947 36894 ft 484 kts 133°
2026-05-04 23:11 42.23434 -109.77809 36923 ft 485 kts 133°
2026-05-04 23:12 42.19260 -109.70662 36896 ft 483 kts 133°
2026-05-04 23:12 42.15093 -109.63554 36894 ft 484 kts 133°
2026-05-04 23:13 42.10914 -109.56433 36890 ft 485 kts 133°
2026-05-04 23:13 42.06755 -109.49368 36901 ft 485 kts 133°
2026-05-04 23:14 42.02554 -109.42247 36880 ft 484 kts 133°
2026-05-04 23:14 41.98365 -109.35160 36896 ft 485 kts 133°
2026-05-04 23:15 41.94154 -109.28061 36886 ft 488 kts 134°
2026-05-04 23:15 41.89942 -109.20968 36884 ft 488 kts 134°
2026-05-04 23:16 41.85689 -109.13831 36869 ft 489 kts 134°
2026-05-04 23:16 41.81436 -109.06708 36873 ft 490 kts 134°
2026-05-04 23:17 41.77174 -108.99585 36863 ft 490 kts 135°
2026-05-04 23:17 41.72890 -108.92442 36879 ft 492 kts 135°
2026-05-04 23:18 41.68607 -108.85318 36865 ft 491 kts 135°
2026-05-04 23:18 41.64310 -108.78187 36859 ft 491 kts 135°
2026-05-04 23:19 41.60027 -108.71099 36884 ft 492 kts 135°
2026-05-04 23:19 41.55733 -108.64003 36870 ft 493 kts 135°
2026-05-04 23:20 41.51421 -108.56890 36903 ft 494 kts 135°
2026-05-04 23:20 41.47096 -108.49775 36851 ft 492 kts 135°
2026-05-04 23:21 41.42750 -108.42646 36887 ft 496 kts 135°
2026-05-04 23:21 41.38464 -108.35443 36880 ft 501 kts 127°
2026-05-04 23:22 41.36945 -108.31309 36878 ft 508 kts 112°
2026-05-04 23:22 41.35905 -108.26812 36907 ft 509 kts 111°
2026-05-04 23:22 41.33694 -108.17828 36914 ft 511 kts 111°
2026-05-04 23:23 41.31477 -108.08826 36894 ft 511 kts 111°
2026-05-04 23:23 41.29260 -107.99851 36901 ft 512 kts 112°
2026-05-04 23:24 41.27025 -107.90841 36919 ft 515 kts 112°
2026-05-04 23:24 41.24771 -107.81790 36919 ft 516 kts 112°
2026-05-04 23:25 41.22508 -107.72736 36930 ft 517 kts 112°
2026-05-04 23:25 41.20253 -107.63747 36933 ft 518 kts 112°
2026-05-04 23:26 41.17962 -107.54651 36933 ft 519 kts 112°
2026-05-04 23:26 41.15656 -107.45531 36932 ft 521 kts 112°
2026-05-04 23:27 41.13346 -107.36422 36943 ft 522 kts 112°
2026-05-04 23:27 41.11028 -107.27281 36935 ft 523 kts 112°
2026-05-04 23:28 41.08717 -107.18201 36933 ft 523 kts 112°
2026-05-04 23:28 41.06377 -107.09044 36935 ft 524 kts 112°
2026-05-04 23:29 41.04034 -106.99907 36937 ft 525 kts 112°
2026-05-04 23:29 41.01673 -106.90738 36933 ft 527 kts 113°
2026-05-04 23:30 40.99702 -106.83110 36941 ft 527 kts 113°
2026-05-04 23:30 40.97327 -106.73946 36981 ft 528 kts 113°
2026-05-04 23:31 40.94939 -106.64770 36960 ft 527 kts 113°
2026-05-04 23:31 40.93747 -106.60198 36502 ft 523 kts 113°
2026-05-04 23:31 40.92555 -106.55638 35634 ft 527 kts 112°
2026-05-04 23:32 40.91350 -106.51037 34763 ft 531 kts 112°
2026-05-04 23:32 40.90147 -106.46448 34245 ft 526 kts 111°
2026-05-04 23:32 40.88953 -106.41911 33579 ft 524 kts 111°
2026-05-04 23:32 40.87752 -106.37352 32710 ft 527 kts 111°
2026-05-04 23:33 40.86546 -106.32776 31904 ft 527 kts 111°
2026-05-04 23:33 40.85360 -106.28288 31547 ft 517 kts 111°
2026-05-04 23:33 40.84076 -106.23944 31359 ft 502 kts 117°
2026-05-04 23:33 40.82620 -106.19798 30939 ft 495 kts 117°
2026-05-04 23:34 40.81167 -106.15678 30312 ft 493 kts 118°
2026-05-04 23:34 40.79715 -106.11583 29640 ft 493 kts 117°
2026-05-04 23:34 40.78263 -106.07493 29106 ft 489 kts 117°
2026-05-04 23:34 40.76821 -106.03441 28588 ft 485 kts 117°
2026-05-04 23:35 40.75392 -105.99427 28020 ft 482 kts 117°
2026-05-04 23:35 40.73988 -105.95493 27524 ft 477 kts 117°
2026-05-04 23:35 40.72579 -105.91550 26981 ft 473 kts 117°
2026-05-04 23:35 40.71180 -105.87646 26554 ft 466 kts 117°
2026-05-04 23:36 40.69809 -105.83825 26219 ft 458 kts 117°
2026-05-04 23:36 40.68453 -105.80050 25811 ft 452 kts 117°
2026-05-04 23:36 40.67115 -105.76331 25405 ft 446 kts 117°
2026-05-04 23:36 40.65791 -105.72657 25018 ft 440 kts 117°
2026-05-04 23:37 40.64499 -105.69074 24614 ft 435 kts 117°
2026-05-04 23:37 40.63205 -105.65490 24168 ft 431 kts 117°
2026-05-04 23:37 40.61925 -105.61951 23813 ft 425 kts 117°
2026-05-04 23:37 40.60663 -105.58466 23447 ft 419 kts 117°
2026-05-04 23:38 40.59421 -105.55040 23079 ft 415 kts 117°
2026-05-04 23:38 40.58170 -105.51595 22725 ft 415 kts 117°
2026-05-04 23:38 40.56927 -105.48172 22320 ft 413 kts 117°
2026-05-04 23:38 40.55692 -105.44776 21964 ft 408 kts 117°
2026-05-04 23:39 40.54470 -105.41420 21567 ft 405 kts 117°
2026-05-04 23:39 40.53254 -105.38088 21099 ft 403 kts 117°
2026-05-04 23:39 40.52060 -105.34819 20713 ft 400 kts 117°
2026-05-04 23:39 40.50861 -105.31538 20319 ft 397 kts 117°
2026-05-04 23:40 40.49668 -105.28274 19915 ft 394 kts 118°
2026-05-04 23:40 40.48488 -105.25053 19519 ft 392 kts 117°
2026-05-04 23:40 40.47306 -105.21831 19119 ft 388 kts 118°
2026-05-04 23:40 40.46024 -105.18745 18802 ft 380 kts 130°
2026-05-04 23:41 40.44163 -105.16421 18596 ft 364 kts 149°
2026-05-04 23:41 40.42114 -105.14520 18395 ft 356 kts 148°
2026-05-04 23:41 40.40123 -105.12644 18194 ft 349 kts 148°
2026-05-04 23:41 40.38167 -105.10816 18000 ft 341 kts 148°
2026-05-04 23:42 40.36274 -105.09053 17829 ft 337 kts 148°
2026-05-04 23:42 40.34357 -105.07273 17634 ft 337 kts 148°
2026-05-04 23:42 40.32450 -105.05504 17447 ft 336 kts 148°
2026-05-04 23:42 40.30543 -105.03736 17253 ft 336 kts 148°
2026-05-04 23:43 40.28642 -105.01975 17063 ft 334 kts 148°
2026-05-04 23:43 40.26742 -105.00217 16874 ft 333 kts 148°
2026-05-04 23:43 40.24877 -104.98492 16689 ft 332 kts 148°
2026-05-04 23:43 40.22991 -104.96749 16496 ft 332 kts 148°
2026-05-04 23:44 40.21108 -104.95010 16289 ft 331 kts 148°
2026-05-04 23:44 40.19233 -104.93277 16112 ft 329 kts 148°
2026-05-04 23:44 40.17417 -104.91436 15895 ft 330 kts 143°
2026-05-04 23:44 40.15643 -104.89539 15719 ft 329 kts 144°
2026-05-04 23:45 40.13867 -104.87656 15542 ft 328 kts 144°
2026-05-04 23:45 40.12087 -104.85779 15358 ft 327 kts 144°
2026-05-04 23:45 40.10323 -104.83924 15171 ft 327 kts 144°
2026-05-04 23:45 40.08550 -104.82062 14994 ft 326 kts 144°
2026-05-04 23:46 40.06824 -104.80207 14798 ft 326 kts 139°
2026-05-04 23:46 40.05405 -104.77878 14528 ft 327 kts 127°
2026-05-04 23:46 40.04099 -104.75463 14283 ft 325 kts 128°
2026-05-04 23:46 40.02787 -104.73060 14035 ft 325 kts 127°
2026-05-04 23:47 40.01473 -104.70664 13794 ft 324 kts 127°
2026-05-04 23:47 40.00160 -104.68276 13608 ft 324 kts 128°
2026-05-04 23:47 39.98847 -104.65889 13417 ft 323 kts 128°
2026-05-04 23:47 39.97540 -104.63514 13234 ft 323 kts 128°
2026-05-04 23:48 39.96227 -104.61124 13000 ft 323 kts 128°
2026-05-04 23:48 39.94939 -104.58777 12753 ft 321 kts 127°
2026-05-04 23:48 39.93644 -104.56421 12548 ft 320 kts 127°
2026-05-04 23:48 39.92355 -104.54092 12332 ft 315 kts 128°
2026-05-04 23:49 39.91017 -104.51857 12101 ft 307 kts 139°
2026-05-04 23:49 39.89245 -104.50445 11845 ft 295 kts 166°
2026-05-04 23:49 39.87266 -104.50104 11649 ft 282 kts 184°
2026-05-04 23:49 39.85325 -104.50084 11486 ft 275 kts 183°
2026-05-04 23:50 39.83460 -104.50079 11295 ft 269 kts 184°
2026-05-04 23:50 39.81611 -104.50087 11110 ft 263 kts 184°
2026-05-04 23:50 39.79798 -104.50105 10919 ft 257 kts 184°
2026-05-04 23:50 39.78004 -104.50120 10772 ft 258 kts 184°
2026-05-04 23:51 39.76206 -104.50135 10611 ft 258 kts 184°
2026-05-04 23:51 39.74405 -104.50151 10476 ft 258 kts 184°
2026-05-04 23:51 39.72603 -104.50165 10343 ft 258 kts 184°
2026-05-04 23:51 39.70826 -104.50180 10200 ft 258 kts 184°
2026-05-04 23:52 39.69036 -104.50195 10086 ft 258 kts 184°
2026-05-04 23:52 39.67239 -104.50210 9954 ft 258 kts 184°
2026-05-04 23:52 39.65443 -104.50225 9836 ft 258 kts 184°
2026-05-04 23:52 39.63638 -104.50240 9694 ft 258 kts 184°
2026-05-04 23:53 39.61844 -104.50254 9551 ft 258 kts 184°
2026-05-04 23:53 39.60051 -104.50268 9397 ft 257 kts 184°
2026-05-04 23:53 39.58256 -104.50283 9249 ft 258 kts 184°
2026-05-04 23:53 39.56488 -104.50297 9115 ft 258 kts 184°
2026-05-04 23:54 39.54691 -104.50311 8992 ft 258 kts 184°
2026-05-04 23:54 39.52893 -104.50325 8950 ft 257 kts 184°
2026-05-04 23:54 39.51124 -104.50537 8938 ft 251 kts 203°
2026-05-04 23:54 39.49704 -104.51663 8959 ft 241 kts 230°
2026-05-04 23:55 39.48742 -104.53411 8996 ft 239 kts 243°
2026-05-04 23:55 39.47888 -104.55276 8998 ft 241 kts 242°
2026-05-04 23:55 39.47232 -104.59266 8926 ft 229 kts 290°
2026-05-04 23:56 39.48035 -104.61044 8967 ft 232 kts 310°
2026-05-04 23:56 39.49158 -104.62557 8971 ft 235 kts 323°
2026-05-04 23:56 39.50658 -104.63399 8969 ft 237 kts 341°
2026-05-04 23:56 39.52240 -104.64032 8994 ft 239 kts 340°
2026-05-04 23:57 39.53873 -104.64452 8976 ft 241 kts 355°
2026-05-04 23:57 39.55539 -104.64461 8976 ft 243 kts 356°
2026-05-04 23:57 39.57230 -104.64452 8957 ft 243 kts 357°
2026-05-04 23:57 39.58921 -104.64437 8941 ft 243 kts 357°
2026-05-04 23:58 39.60613 -104.64420 8932 ft 242 kts 357°
2026-05-04 23:58 39.62298 -104.64403 8946 ft 241 kts 357°
2026-05-04 23:58 39.63975 -104.64384 8932 ft 241 kts 357°
2026-05-04 23:58 39.65662 -104.64365 8721 ft 242 kts 358°
2026-05-04 23:59 39.67316 -104.64345 8442 ft 230 kts 358°
2026-05-04 23:59 39.68843 -104.64327 8180 ft 206 kts 358°
2026-05-04 23:59 39.70197 -104.64312 7915 ft 182 kts 358°
2026-05-04 23:59 39.71396 -104.64299 7678 ft 165 kts 358°
2026-05-05 00:00 39.72521 -104.64286 7456 ft 163 kts 358°
2026-05-05 00:00 39.72905 -104.64283 7392 ft 162 kts 359°
2026-05-05 00:00 39.74775 -104.64262 7027 ft 161 kts 359°
2026-05-05 00:00 39.75892 -104.64250 6809 ft 160 kts 359°
2026-05-05 00:01 39.77000 -104.64238 6607 ft 159 kts 360°
2026-05-05 00:01 39.78104 -104.64224 6398 ft 158 kts 360°
2026-05-05 00:01 39.79207 -104.64211 6180 ft 158 kts 360°
2026-05-05 00:01 39.80296 -104.64198 5971 ft 158 kts 360°
2026-05-05 00:02 39.81398 -104.64186 5771 ft 158 kts 360°
2026-05-05 00:02 39.82492 -104.64172 5560 ft 155 kts 359°
2026-05-05 00:02 39.83565 -104.64164 5367 ft 149 kts 359°
2026-05-05 00:02 39.84390 -104.64157 5371 ft 85 kts
2026-05-05 00:03 39.84931 -104.64157 5367 ft 47 kts 357°
2026-05-05 00:03 39.85240 -104.64250 5368 ft 45 kts 336°
2026-05-05 00:03 39.85512 -104.64358 5367 ft 36 kts 358°
2026-05-05 00:03 39.85758 -104.64366 5368 ft 35 kts 351°
2026-05-05 00:04 39.85975 -104.64500 5367 ft 34 kts 329°
2026-05-05 00:04 39.86181 -104.64654 5367 ft 34 kts 330°
2026-05-05 00:04 39.86389 -104.64798 5369 ft 34 kts 330°
2026-05-05 00:04 39.86492 -104.64979 5369 ft 24 kts 271°
2026-05-05 00:05 39.86494 -104.65200 5369 ft 25 kts 270°
2026-05-05 00:05 39.86495 -104.65427 5369 ft 25 kts 270°
2026-05-05 00:05 39.86498 -104.65657 5368 ft 26 kts 270°
2026-05-05 00:05 39.86500 -104.65889 5368 ft 26 kts 271°
2026-05-05 00:06 39.86499 -104.66124 5368 ft 26 kts 269°
2026-05-05 00:06 39.86466 -104.66334 5367 ft 23 kts 208°
2026-05-05 00:06 39.86347 -104.66339 5366 ft 16 kts 178°
2026-05-05 00:06 39.86230 -104.66341 5365 ft 17 kts 181°
2026-05-05 00:07 39.86108 -104.66344 5365 ft 18 kts 181°
2026-05-05 00:07 39.86018 -104.66371 5365 ft 7 kts 245°
2026-05-05 00:07 39.86019 -104.66456 5368 ft 14 kts 271°
2026-05-05 00:07 39.86057 -104.66580 5368 ft 18 kts 289°
2026-05-05 00:08 39.86062 -104.66735 5365 ft 18 kts 270°
2026-05-05 00:08 39.86063 -104.66904 5368 ft 19 kts 270°
2026-05-05 00:08 39.86065 -104.67079 5368 ft 20 kts 271°
2026-05-05 00:08 39.86067 -104.67259 5368 ft 20 kts 271°
2026-05-05 00:09 39.86067 -104.67428 5366 ft 17 kts 270°
2026-05-05 00:09 39.86068 -104.67588 5365 ft 18 kts 270°
2026-05-05 00:09 39.86070 -104.67739 5365 ft 1 kts 271°
2026-05-05 00:09 39.86070 -104.67752 5368 ft 2 kts 271°
2026-05-05 00:10 39.86069 -104.67778 5365 ft 1 kts 259°
2026-05-05 00:10 39.86026 -104.67828 5365 ft 12 kts 205°
2026-05-05 00:10 39.85942 -104.67847 5367 ft 5 kts 181°
2026-05-05 00:10 39.85938 -104.67847 5368 ft 0 kts 181°